N1VL Weather Reports


Display with metric or nautical units.
time (UTC)temp
F
wind
direction
speed
MPH
gust
MPH
rain 1hr
in
rain 24hr
in
rain mn
in
humidity
%
barometer
mb
20260905174502 80 97 10.0 20.0 0.00 0.00 0.00 27 1020.1
20260905173602 80 95 9.0 21.0 0.00 0.00 0.00 27 1020.1
20260905172702 79 94 11.0 21.0 0.00 0.00 0.00 27 1020.1
20260905171802 79 92 10.0 20.0 0.00 0.00 0.00 28 1020.1
20260905170902 79 85 10.0 19.0 0.00 0.00 0.00 29 1020.2
20260905170002 78 89 9.0 15.0 0.00 0.00 0.00 32 1020.2
20260905165402 78 91 7.0 15.0 0.00 0.00 0.00 33 1020.2
20260905164502 77 105 5.0 10.0 0.00 0.00 0.00 40 1020.4
20260905163602 76 93 5.0 10.0 0.00 0.00 0.00 40 1020.4
20260905162702 75 104 5.0 9.0 0.00 0.00 0.00 41 1020.4
20260905161802 74 96 6.0 10.0 0.00 0.00 0.00 42 1020.4
20260905160902 74 97 5.0 10.0 0.00 0.00 0.00 43 1020.4
20260905160002 72 107 5.0 8.0 0.00 0.00 0.00 45 1020.4
20260905155403 72 108 5.0 8.0 0.00 0.00 0.00 45 1020.4
20260905154502 72 113 3.0 7.0 0.00 0.00 0.00 47 1020.5
20260905153602 71 142 3.0 7.0 0.00 0.00 0.00 48 1020.4
20260905152702 70 128 5.0 8.0 0.00 0.00 0.00 47 1020.5
20260905151802 70 119 4.0 7.0 0.00 0.00 0.00 49 1020.5
20260905150902 69 110 4.0 7.0 0.00 0.00 0.00 49 1020.4
20260905150002 68 112 4.0 8.0 0.00 0.00 0.00 48 1020.4
20260905145402 67 99 4.0 7.0 0.00 0.00 0.00 48 1020.4
20260905144505 65 105 1.0 6.0 0.00 0.00 0.00 45 1020.3
20260905143602 64 129 1.0 4.0 0.00 0.00 0.00 42 1020.4
20260905142702 64 137 0.0 2.0 0.00 0.00 0.00 40 1020.4
20260905141823 63 137 1.0 2.0 0.00 0.00 0.00 38 1020.2
20260905140902 62 137 0.0 2.0 0.00 0.00 0.00 39 1020.1
20260905140002 62 137 1.0 5.0 0.00 0.00 0.00 40 1020.0
20260905135402 62 137 1.0 5.0 0.00 0.00 0.00 42 1019.9
20260905134502 62 110 2.0 5.0 0.00 0.00 0.00 45 1019.7
20260905133602 62 50 0.0 2.0 0.00 0.00 0.00 49 1019.6
20260905132702 62 83 3.0 6.0 0.00 0.00 0.00 50 1019.5
20260905131824 63 133 3.0 7.0 0.00 0.00 0.00 51 1019.4
20260905130902 63 140 4.0 7.0 0.00 0.00 0.00 54 1019.3
20260905130002 63 141 5.0 6.0 0.00 0.00 0.00 53 1019.0
20260905125403 63 138 5.0 8.0 0.00 0.00 0.00 53 1019.0
20260905124502 62 149 4.0 8.0 0.00 0.00 0.00 52 1018.9
20260905123623 62 168 3.0 6.0 0.00 0.00 0.00 51 1018.9
20260905122702 63 159 3.0 7.0 0.00 0.00 0.00 49 1018.7
20260905121802 64 108 1.0 5.0 0.00 0.00 0.00 46 1018.7
20260905120902 64 108 1.0 6.0 0.00 0.00 0.00 44 1018.7
20260905120002 66 115 4.0 6.0 0.00 0.00 0.00 42 1018.7
20260905115402 66 138 3.0 6.0 0.00 0.00 0.00 42 1018.5
20260905114502 67 106 4.0 9.0 0.00 0.00 0.00 40 1018.7
20260905113602 68 86 5.0 11.0 0.00 0.00 0.00 37 1018.6
20260905112702 68 79 7.0 11.0 0.00 0.00 0.00 37 1018.6
20260905111823 68 83 6.0 10.0 0.00 0.00 0.00 39 1018.6
20260905110923 68 73 7.0 11.0 0.00 0.00 0.00 40 1018.5
20260905110023 68 73 7.0 11.0 0.00 0.00 0.00 41 1018.5
20260905105423 68 73 6.0 11.0 0.00 0.00 0.00 42 1018.4
20260905104502 68 78 6.0 10.0 0.00 0.00 0.00 41 1018.6
20260905103603 69 72 7.0 11.0 0.00 0.00 0.00 40 1018.6
20260905102702 69 73 8.0 12.0 0.00 0.00 0.00 41 1018.5
20260905101802 68 76 8.0 12.0 0.00 0.00 0.00 42 1018.4
20260905100903 68 79 8.0 12.0 0.00 0.00 0.00 43 1018.3
20260905100002 69 80 8.0 12.0 0.00 0.00 0.00 43 1018.3
20260905095402 69 85 8.0 12.0 0.00 0.00 0.00 43 1018.2
20260905094502 69 84 9.0 13.0 0.00 0.00 0.00 42 1018.1
20260905093623 69 82 8.0 13.0 0.00 0.00 0.00 42 1018.0
20260905092702 69 80 9.0 13.0 0.00 0.00 0.00 43 1017.9
20260905091802 70 76 8.0 13.0 0.00 0.00 0.00 43 1017.9
20260905090902 70 78 9.0 13.0 0.00 0.00 0.00 43 1017.8
20260905090002 71 85 8.0 12.0 0.00 0.00 0.00 42 1017.7
20260905085402 71 85 9.0 14.0 0.00 0.00 0.00 41 1017.7
20260905084503 72 84 9.0 14.0 0.00 0.00 0.00 39 1017.6
20260905083602 72 86 10.0 15.0 0.00 0.00 0.00 38 1017.6
20260905082702 73 85 10.0 18.0 0.00 0.00 0.00 38 1017.5
20260905081802 73 85 10.0 16.0 0.00 0.00 0.00 38 1017.4
20260905080902 73 87 11.0 19.0 0.00 0.00 0.00 38 1017.3
20260905080002 73 82 12.0 18.0 0.00 0.00 0.00 37 1017.3
20260905075402 73 80 11.0 18.0 0.00 0.00 0.00 38 1017.1
20260905074502 73 81 12.0 19.0 0.00 0.00 0.00 39 1017.2
20260905073602 73 86 9.0 16.0 0.00 0.00 0.00 39 1017.1
20260905072702 73 111 7.0 13.0 0.00 0.00 0.00 40 1016.9
20260905071802 73 105 6.0 12.0 0.00 0.00 0.00 41 1016.8
20260905070902 73 84 9.0 14.0 0.00 0.00 0.00 41 1016.6
20260905070002 73 77 9.0 14.0 0.00 0.00 0.00 41 1016.5
20260905065402 73 74 9.0 15.0 0.00 0.00 0.00 41 1016.3
20260905064502 73 78 9.0 14.0 0.00 0.00 0.00 41 1016.3
20260905063603 74 82 7.0 11.0 0.00 0.00 0.00 38 1016.2
20260905062723 75 115 5.0 10.0 0.00 0.00 0.00 38 1016.2
20260905061802 75 102 4.0 9.0 0.00 0.00 0.00 37 1016.1
20260905060902 76 102 5.0 14.0 0.00 0.00 0.00 35 1016.0
20260905060002 76 101 7.0 14.0 0.00 0.00 0.00 37 1015.8
20260905055402 76 94 7.0 14.0 0.00 0.00 0.00 36 1015.7
20260905054502 76 100 6.0 13.0 0.00 0.00 0.00 36 1015.6
20260905053602 76 95 6.0 12.0 0.00 0.00 0.00 34 1015.6
20260905052702 76 107 5.0 10.0 0.00 0.00 0.00 36 1015.6
20260905051802 76 109 5.0 12.0 0.00 0.00 0.00 36 1015.6
20260905050923 75 91 7.0 14.0 0.00 0.00 0.00 36 1015.5
20260905050002 75 87 8.0 15.0 0.00 0.00 0.00 37 1015.4
20260905045402 75 85 7.0 14.0 0.00 0.00 0.00 39 1015.4
20260905044503 75 83 6.0 12.0 0.00 0.00 0.00 38 1015.2
20260905043602 75 74 5.0 9.0 0.00 0.00 0.00 36 1015.2
20260905042703 76 73 5.0 13.0 0.00 0.00 0.00 36 1015.2
20260905041823 77 89 3.0 13.0 0.00 0.00 0.00 34 1015.1
20260905040902 78 52 4.0 13.0 0.00 0.00 0.00 30 1015.2
20260905040002 77 141 4.0 11.0 0.00 0.00 0.00 26 1015.0
20260905035402 77 128 3.0 11.0 0.00 0.00 0.00 28 1014.8
20260905034502 78 101 3.0 8.0 0.00 0.00 0.00 31 1014.8
20260905033602 78 110 4.0 8.0 0.00 0.00 0.00 32 1014.7
20260905032702 79 93 4.0 9.0 0.00 0.00 0.00 34 1014.7
20260905031802 80 98 4.0 12.0 0.00 0.00 0.00 30 1014.7
20260905030902 81 129 6.0 14.0 0.00 0.00 0.00 24 1014.5
20260905030002 82 144 8.0 14.0 0.00 0.00 0.00 23 1014.3
20260905025402 82 146 8.0 16.0 0.00 0.00 0.00 24 1014.1
20260905024502 82 150 7.0 16.0 0.00 0.00 0.00 24 1013.9
20260905023623 82 153 7.0 16.0 0.00 0.00 0.00 24 1013.8
20260905022723 82 147 9.0 14.0 0.00 0.00 0.00 24 1013.7
20260905021802 83 139 9.0 20.0 0.00 0.00 0.00 24 1013.6
20260905020902 83 134 11.0 22.0 0.00 0.00 0.00 24 1013.5
20260905020002 83 133 12.0 22.0 0.00 0.00 0.00 24 1013.6
20260905015402 84 135 12.0 23.0 0.00 0.00 0.00 23 1013.5
20260905014502 84 136 13.0 20.0 0.00 0.00 0.00 23 1013.5
20260905013602 84 132 10.0 18.0 0.00 0.00 0.00 24 1013.5
20260905012702 84 138 10.0 16.0 0.00 0.00 0.00 23 1013.6
20260905011802 85 142 10.0 20.0 0.00 0.00 0.00 23 1013.5
20260905010902 85 137 10.0 18.0 0.00 0.00 0.00 23 1013.5
20260905010023 86 135 10.0 18.0 0.00 0.00 0.00 23 1013.5
20260905005402 86 143 10.0 21.0 0.00 0.00 0.00 23 1013.5
20260905004502 86 135 12.0 21.0 0.00 0.00 0.00 22 1013.5
20260905003603 87 142 10.0 21.0 0.00 0.00 0.00 22 1013.5
20260905002702 87 128 9.0 15.0 0.00 0.00 0.00 22 1013.5
20260905001802 88 135 8.0 15.0 0.00 0.00 0.00 22 1013.4
20260905000902 88 116 8.0 15.0 0.00 0.00 0.00 21 1013.5
20260905000002 88 125 8.0 16.0 0.00 0.00 0.00 21 1013.5
20260904235402 88 124 7.0 16.0 0.00 0.00 0.00 22 1013.4
20260904234502 88 123 7.0 15.0 0.00 0.00 0.00 22 1013.5
20260904233602 88 109 9.0 15.0 0.00 0.00 0.00 24 1013.6
20260904232703 88 104 7.0 14.0 0.00 0.00 0.00 21 1013.5
20260904231802 88 99 9.0 16.0 0.00 0.00 0.00 21 1013.5
20260904230902 88 100 8.0 18.0 0.00 0.00 0.00 20 1013.5
20260904230002 88 99 10.0 21.0 0.00 0.00 0.00 19 1013.6
20260904225402 88 100 9.0 19.0 0.00 0.00 0.00 19 1013.6
20260904224502 88 101 10.0 19.0 0.00 0.00 0.00 20 1013.6
20260904223624 88 102 10.0 21.0 0.00 0.00 0.00 20 1013.7
20260904222724 88 97 10.0 19.0 0.00 0.00 0.00 19 1013.8
20260904221802 88 101 9.0 18.0 0.00 0.00 0.00 20 1014.0
20260904220902 88 104 10.0 19.0 0.00 0.00 0.00 19 1014.2
20260904220002 88 97 10.0 21.0 0.00 0.00 0.00 19 1014.3
20260904215403 88 94 11.0 23.0 0.00 0.00 0.00 19 1014.3
20260904214503 88 99 10.0 22.0 0.00 0.00 0.00 20 1014.3
20260904213602 87 98 10.0 22.0 0.00 0.00 0.00 21 1014.5
20260904212702 87 101 10.0 18.0 0.00 0.00 0.00 20 1014.5
20260904211802 87 93 11.0 20.0 0.00 0.00 0.00 19 1014.5
20260904210902 87 95 9.0 20.0 0.00 0.00 0.00 19 1014.8
20260904210003 87 89 10.0 20.0 0.00 0.00 0.00 19 1014.7
20260904205423 86 92 10.0 24.0 0.00 0.00 0.00 20 1014.8
20260904204502 86 86 11.0 22.0 0.00 0.00 0.00 20 1014.8
20260904203602 86 87 11.0 22.0 0.00 0.00 0.00 21 1015.0
20260904202702 85 90 11.0 22.0 0.00 0.00 0.00 22 1015.1
20260904201802 86 99 11.0 22.0 0.00 0.00 0.00 21 1015.1
20260904200903 85 97 8.0 25.0 0.00 0.00 0.00 23 1015.2
20260904200002 85 85 12.0 25.0 0.00 0.00 0.00 23 1015.4
20260904195402 84 86 13.0 22.0 0.00 0.00 0.00 24 1015.4
20260904194502 84 90 12.0 22.0 0.00 0.00 0.00 25 1015.5
20260904193602 84 87 13.0 29.0 0.00 0.00 0.00 23 1015.5
20260904192702 83 93 13.0 24.0 0.00 0.00 0.00 25 1015.8
20260904191802 82 88 13.0 24.0 0.00 0.00 0.00 26 1015.9
20260904190902 82 87 13.0 24.0 0.00 0.00 0.00 26 1016.0
20260904190003 82 91 12.0 24.0 0.00 0.00 0.00 26 1016.1
20260904185402 82 89 13.0 22.0 0.00 0.00 0.00 27 1016.1
20260904184524 81 92 12.0 21.0 0.00 0.00 0.00 26 1016.3
20260904183624 81 88 13.0 23.0 0.00 0.00 0.00 26 1016.5
20260904182702 81 91 12.0 21.0 0.00 0.00 0.00 29 1016.5
20260904181824 80 87 13.0 22.0 0.00 0.00 0.00 29 1016.6
20260904180902 80 88 12.0 24.0 0.00 0.00 0.00 30 1016.7
20260904180002 80 86 13.0 23.0 0.00 0.00 0.00 29 1016.8
20260904175402 80 86 12.0 23.0 0.00 0.00 0.00 29 1016.8